 day,  time,  air_temp(C),  RH(%),  ground_temp10cm(C),  ground_temp20cm(C),  ground_temp40cm(C),  precipitation(mm/h),  Solar_Radiation(MJ/m2h),  lack, 
 05/02/01, 01:00,  -9.9,  95,   0.7,   1.3,   2.6,   0.5,  0.00, 
 05/02/01, 02:00,  -9.9,  95,   0.7,   1.3,   2.6,   1.0,  0.00, 
 05/02/01, 03:00,  -9.7,  95,   0.7,   1.3,   2.6,   1.5,  0.00, 
 05/02/01, 04:00, -10.0,  94,   0.7,   1.3,   2.6,   1.0,  0.00, 
 05/02/01, 05:00, -10.6,  93,   0.7,   1.3,   2.6,   0.5,  0.00, 
 05/02/01, 06:00, -11.1,  92,   0.7,   1.3,   2.6,   1.0,  0.00, 
 05/02/01, 07:00, -11.2,  95,   0.7,   1.3,   2.6,   2.0,  0.00, 
 05/02/01, 08:00, -11.2,  93,   0.7,   1.3,   2.6,   1.0,  0.00, 
 05/02/01, 09:00, -10.6,  96,   0.7,   1.3,   2.6,   1.0,  0.02, 
 05/02/01, 10:00,  -9.8,  97,   0.7,   1.3,   2.5,   3.0,  0.14, 
 05/02/01, 11:00,  -9.2,  99,   0.7,   1.3,   2.5,   1.0,  0.17, 
 05/02/01, 12:00,  -9.5,  99,   0.7,   1.3,   2.5,   1.5,  0.13, 
 05/02/01, 13:00,  -9.6,  99,   0.7,   1.3,   2.5,   0.0,  0.19, 
 05/02/01, 14:00,  -9.2,  99,   0.6,   1.3,   2.5,   0.5,  0.19, 
 05/02/01, 15:00, -10.0,  99,   0.6,   1.3,   2.5,   1.0,  0.10, 
 05/02/01, 16:00, -11.0,  99,   0.6,   1.3,   2.5,   1.5,  0.08, 
 05/02/01, 17:00, -11.1,  98,   0.6,   1.3,   2.5,   0.5,  0.03, 
 05/02/01, 18:00, -11.1,  99,   0.6,   1.3,   2.5,   4.0,  0.00, 
 05/02/01, 19:00, -10.9,  98,   0.6,   1.3,   2.5,   2.0,  0.00, 
 05/02/01, 20:00, -10.9,  98,   0.6,   1.3,   2.5,   2.0,  0.00, 
 05/02/01, 21:00, -11.0,  99,   0.6,   1.3,   2.5,   2.0,  0.00, 
 05/02/01, 22:00, -11.0,  99,   0.6,   1.3,   2.5,   2.5,  0.00, 
 05/02/01, 23:00, -11.0,  99,   0.6,   1.3,   2.4,   2.0,  0.00, 
 05/02/02, 00:00, -11.0,  99,   0.6,   1.3,   2.5,   2.5,  0.00, 
 05/02/02, 01:00, -11.0,  99,   0.6,   1.3,   2.5,   4.0,  0.00, 
 05/02/02, 02:00, -10.9,  99,   0.6,   1.3,   2.5,   1.5,  0.00, 
 05/02/02, 03:00, -10.8,  99,   0.7,   1.3,   2.5,   2.0,  0.00, 
 05/02/02, 04:00, -10.7,  97,   0.6,   1.3,   2.5,   2.5,  0.00, 
 05/02/02, 05:00, -10.9,  98,   0.6,   1.3,   2.5,   0.5,  0.00, 
 05/02/02, 06:00, -10.8,  99,   0.6,   1.3,   2.5,   1.0,  0.00, 
 05/02/02, 07:00, -10.5,  98,   0.6,   1.3,   2.5,   2.5,  0.00, 
 05/02/02, 08:00, -10.4,  99,   0.6,   1.3,   2.5,   3.0,  0.00, 
 05/02/02, 09:00,  -9.9,  99,   0.6,   1.3,   2.5,   2.0,  0.11, 
 05/02/02, 10:00,  -8.9,  99,   0.6,   1.3,   2.5,   2.0,  0.32, 
 05/02/02, 11:00,  -8.7,  99,   0.7,   1.3,   2.5,   1.0,  0.40, 
 05/02/02, 12:00,  -8.2,  99,   0.7,   1.3,   2.5,   1.0,  0.52, 
 05/02/02, 13:00,  -7.9,  99,   0.7,   1.3,   2.5,   1.0,  0.42, 
 05/02/02, 14:00,  -7.5,  99,   0.7,   1.3,   2.5,   1.0,  0.40, 
 05/02/02, 15:00,  -7.9,  99,   0.7,   1.3,   2.5,   0.5,  0.67, 
 05/02/02, 16:00,  -7.9,  99,   0.7,   1.3,   2.5,   0.5,  0.39, 
 05/02/02, 17:00,  -8.5,  98,   0.7,   1.3,   2.5,   0.0,  0.14, 
 05/02/02, 18:00,  -8.9,  97,   0.7,   1.3,   2.4,   0.5,  0.00, 
 05/02/02, 19:00,  -9.5,  95,   0.7,   1.3,   2.4,   0.0,  0.00, 
 05/02/02, 20:00,  -9.9,  96,   0.7,   1.3,   2.4,   0.0,  0.00, 
 05/02/02, 21:00,  -8.9,  93,   0.7,   1.2,   2.5,   0.0,  0.00, 
 05/02/02, 22:00,  -9.7,  95,   0.7,   1.2,   2.5,   0.0,  0.00, 
 05/02/02, 23:00,  -9.2,  93,   0.7,   1.2,   2.5,   0.0,  0.00, 
 05/02/03, 00:00,  -9.2,  94,   0.6,   1.2,   2.5,   0.0,  0.00, 
 05/02/03, 01:00,  -9.4,  99,   0.7,   1.2,   2.5,   0.0,  0.00, 
 05/02/03, 02:00,  -9.9,  98,   0.7,   1.2,   2.5,   0.5,  0.00, 
 05/02/03, 03:00,  -9.5,  99,   0.7,   1.2,   2.5,   0.0,  0.00, 
 05/02/03, 04:00,  -9.2,  99,   0.6,   1.2,   2.5,   0.5,  0.00, 
 05/02/03, 05:00,  -9.3,  99,   0.6,   1.2,   2.5,   0.5,  0.00, 
 05/02/03, 06:00,  -8.6,  96,   0.7,   1.2,   2.5,   0.5,  0.00, 
 05/02/03, 07:00,  -8.4,  96,   0.7,   1.2,   2.5,   0.5,  0.00, 
 05/02/03, 08:00,  -8.4,  99,   0.6,   1.2,   2.5,   0.0,  0.02, 
 05/02/03, 09:00,  -7.9,  99,   0.6,   1.2,   2.5,   0.5,  0.23, 
 05/02/03, 10:00,  -7.8,  99,   0.7,   1.2,   2.5,   0.0,  0.38, 
 05/02/03, 11:00,  -7.5,  99,   0.7,   1.2,   2.5,   0.0,  0.65, 
 05/02/03, 12:00,  -6.7,  99,   0.7,   1.2,   2.5,   0.5,  0.87, 
 05/02/03, 13:00,  -6.5,  99,   0.8,   1.3,   2.6,   0.0,  0.70, 
 05/02/03, 14:00,  -7.0,  99,   0.8,   1.3,   2.6,   0.0,  0.66, 
 05/02/03, 15:00,  -7.4,  99,   0.8,   1.3,   2.6,   0.0,  0.43, 
 05/02/03, 16:00,  -7.4,  99,   0.8,   1.3,   2.6,   0.0,  0.32, 
 05/02/03, 17:00,  -7.8,  99,   0.8,   1.3,   2.5,   0.5,  0.10, 
 05/02/03, 18:00,  -8.6,  95,   0.8,   1.3,   2.5,   0.5,  0.02, 
 05/02/03, 19:00,  -8.5,  96,   0.8,   1.3,   2.6,   0.0,  0.00, 
 05/02/03, 20:00,  -8.7,  99,   0.7,   1.3,   2.6,   0.0,  0.00, 
 05/02/03, 21:00,  -9.2,  99,   0.7,   1.2,   2.5,   0.5,  0.00, 
 05/02/03, 22:00,  -9.2,  93,   0.7,   1.3,   2.6,   0.0,  0.00, 
 05/02/03, 23:00,  -9.6,  96,   0.7,   1.3,   2.5,   0.0,  0.00, 
 05/02/04, 00:00,  -9.0,  88,   0.7,   1.2,   2.5,   0.0,  0.00, 
 05/02/04, 01:00,  -8.7,  90,   0.7,   1.2,   2.5,   0.0,  0.00, 
 05/02/04, 02:00,  -8.5,  93,   0.7,   1.2,   2.5,   0.0,  0.00, 
 05/02/04, 03:00,  -8.4,  91,   0.7,   1.2,   2.5,   0.0,  0.00, 
 05/02/04, 04:00,  -7.6,  88,   0.7,   1.2,   2.5,   0.5,  0.00, 
 05/02/04, 05:00,  -7.4,  92,   0.7,   1.2,   2.5,   0.0,  0.00, 
 05/02/04, 06:00,  -7.0,  91,   0.7,   1.2,   2.5,   0.0,  0.00, 
 05/02/04, 07:00,  -6.9,  96,   0.7,   1.2,   2.5,   0.0,  0.00, 
 05/02/04, 08:00,  -6.8,  99,   0.7,   1.2,   2.5,   0.0,  0.03, 
 05/02/04, 09:00,  -5.5,  99,   0.7,   1.2,   2.5,   0.0,  0.25, 
 05/02/04, 10:00,  -4.7,  99,   0.7,   1.2,   2.5,   0.5,  0.51, 
 05/02/04, 11:00,  -3.5,  99,   0.7,   1.2,   2.5,   0.0,  0.78, 
 05/02/04, 12:00,  -3.9,  86,   0.7,   1.2,   2.5,   0.0,  0.85, 
 05/02/04, 13:00,  -3.5,  83,   0.7,   1.2,   2.5,   0.0,  0.66, 
 05/02/04, 14:00,  -4.2,  93,   0.7,   1.2,   2.5,   0.0,  0.45, 
 05/02/04, 15:00,  -3.9,  90,   0.7,   1.2,   2.5,   0.5,  0.46, 
 05/02/04, 16:00,  -4.2,  96,   0.7,   1.2,   2.5,   0.0,  0.38, 
 05/02/04, 17:00,  -5.0,  92,   0.7,   1.2,   2.4,   0.5,  0.08, 
 05/02/04, 18:00,  -5.1,  88,   0.7,   1.2,   2.5,   0.0,  0.00, 
 05/02/04, 19:00,  -5.3,  91,   0.7,   1.2,   2.5,   0.0,  0.00, 
 05/02/04, 20:00,  -5.6,  93,   0.7,   1.2,   2.4,   0.0,  0.00, 
 05/02/04, 21:00,  -5.6,  95,   0.7,   1.2,   2.4,   0.0,  0.00, 
 05/02/04, 22:00,  -5.8,  98,   0.7,   1.2,   2.5,   0.0,  0.00, 
 05/02/04, 23:00,  -5.7,  98,   0.7,   1.2,   2.4,   0.5,  0.00, 
 05/02/05, 00:00,  -5.4,  98,   0.7,   1.2,   2.5,   0.0,  0.00, 
 05/02/05, 01:00,  -5.6,  98,   0.7,   1.2,   2.5,   0.5,  0.00, 
 05/02/05, 02:00,  -5.6,  99,   0.7,   1.2,   2.5,   1.0,  0.00, 
 05/02/05, 03:00,  -5.7,  99,   0.7,   1.2,   2.5,   0.0,  0.00, 
 05/02/05, 04:00,  -5.7,  99,   0.7,   1.2,   2.5,   0.5,  0.00, 
 05/02/05, 05:00,  -5.9,  98,   0.7,   1.2,   2.5,   0.5,  0.00, 
 05/02/05, 06:00,  -6.9,  93,   0.7,   1.2,   2.5,   0.5,  0.00, 
 05/02/05, 07:00,  -7.3,  95,   0.7,   1.2,   2.5,   0.0,  0.00, 
 05/02/05, 08:00,  -7.4,  96,   0.7,   1.2,   2.5,   0.5,  0.04, 
 05/02/05, 09:00,  -7.0,  89,   0.7,   1.2,   2.5,   0.0,  0.34, 
 05/02/05, 10:00,  -6.4,  94,   0.7,   1.2,   2.5,   0.0,  0.52, 
 05/02/05, 11:00,  -5.2,  91,   0.7,   1.2,   2.5,   0.0,  0.76, 
 05/02/05, 12:00,  -5.5,  90,   0.7,   1.2,   2.5,   0.0,  0.85, 
 05/02/05, 13:00,  -4.7,  90,   0.7,   1.2,   2.5,   0.5,  0.85, 
 05/02/05, 14:00,  -5.4,  93,   0.7,   1.2,   2.5,   0.0,  0.59, 
 05/02/05, 15:00,  -5.2,  94,   0.7,   1.2,   2.5,   1.0,  0.51, 
 05/02/05, 16:00,  -6.1,  94,   0.7,   1.2,   2.5,   0.5,  0.25, 
 05/02/05, 17:00,  -6.6,  91,   0.7,   1.2,   2.5,   0.5,  0.03, 
 05/02/05, 18:00,  -7.0,  95,   0.7,   1.2,   2.5,   0.5,  0.00, 
 05/02/05, 19:00,  -7.7,  95,   0.7,   1.2,   2.4,   0.0,  0.00, 
 05/02/05, 20:00,  -8.2,  93,   0.7,   1.2,   2.4,   0.5,  0.00, 
 05/02/05, 21:00,  -8.8,  92,   0.7,   1.2,   2.4,   0.0,  0.00, 
 05/02/05, 22:00,  -9.4,  89,   0.7,   1.2,   2.4,   0.0,  0.00, 
 05/02/05, 23:00,  -9.4,  90,   0.7,   1.2,   2.5,   0.5,  0.00, 
 05/02/06, 00:00,  -9.4,  91,   0.7,   1.2,   2.4,   0.0,  0.00, 
 05/02/06, 01:00,  -9.4,  94,   0.7,   1.2,   2.5,   0.0,  0.00, 
 05/02/06, 02:00,  -9.6,  93,   0.7,   1.2,   2.4,   0.5,  0.00, 
 05/02/06, 03:00,  -9.8,  94,   0.7,   1.2,   2.5,   0.0,  0.00, 
 05/02/06, 04:00,  -9.7,  93,   0.7,   1.2,   2.5,   0.0,  0.00, 
 05/02/06, 05:00,  -9.8,  92,   0.7,   1.2,   2.5,   0.5,  0.00, 
 05/02/06, 06:00,  -9.8,  90,   0.7,   1.2,   2.4,   0.0,  0.00, 
 05/02/06, 07:00,  -9.3,  86,   0.7,   1.2,   2.4,   0.0,  0.00, 
 05/02/06, 08:00,  -9.2,  89,   0.7,   1.2,   2.4,   0.0,  0.09, 
 05/02/06, 09:00,  -7.5,  80,   0.7,   1.2,   2.4,   0.0,  0.44, 
 05/02/06, 10:00,  -6.7,  81,   0.7,   1.2,   2.4,   0.0,  0.81, 
 05/02/06, 11:00,  -6.0,  78,   0.7,   1.3,   2.5,   0.0,  1.13, 
 05/02/06, 12:00,  -5.4,  77,   0.8,   1.3,   2.5,   0.0,  1.78, 
 05/02/06, 13:00,  -5.1,  77,   0.8,   1.3,   2.5,   0.0,  2.58, 
 05/02/06, 14:00,  -5.6,  81,   0.8,   1.3,   2.4,   0.0,  2.52, 
 05/02/06, 15:00,  -5.5,  77,   0.8,   1.3,   2.5,   0.0,  1.09, 
 05/02/06, 16:00,  -6.0,  80,   0.7,   1.2,   2.4,   0.0,  0.77, 
 05/02/06, 17:00,  -7.0,  82,   0.8,   1.3,   2.5,   0.0,  0.35, 
 05/02/06, 18:00,  -7.9,  88,   0.7,   1.2,   2.5,   0.0,  0.01, 
 05/02/06, 19:00,  -8.6,  89,   0.7,   1.2,   2.4,   0.0,  0.00, 
 05/02/06, 20:00,  -8.9,  88,   0.7,   1.2,   2.3,   0.0,  0.00, 
 05/02/06, 21:00, -10.0,  89,   0.7,   1.2,   2.3,   0.0,  0.00, 
 05/02/06, 22:00, -10.1,  87,   0.7,   1.2,   2.4,   0.0,  0.00, 
 05/02/06, 23:00,  -9.4,  84,   0.7,   1.2,   2.5,   0.0,  0.00, 
 05/02/07, 00:00, -10.6,  89,   0.7,   1.2,   2.4,   0.5,  0.00, 
 05/02/07, 01:00, -11.1,  91,   0.7,   1.2,   2.4,   0.0,  0.00, 
 05/02/07, 02:00, -11.9,  91,   0.7,   1.2,   2.4,   0.0,  0.00, 
 05/02/07, 03:00, -12.1,  91,   0.7,   1.2,   2.4,   0.0,  0.00, 
 05/02/07, 04:00, -11.1,  88,   0.7,   1.2,   2.4,   0.0,  0.00, 
 05/02/07, 05:00, -12.0,  90,   0.7,   1.2,   2.4,   0.0,  0.00, 
 05/02/07, 06:00, -11.1,  85,   0.7,   1.2,   2.4,   0.0,  0.00, 
 05/02/07, 07:00, -12.0,  87,   0.7,   1.2,   2.4,   0.0,  0.00, 
 05/02/07, 08:00,  -9.6,  98,   0.7,   1.2,   2.5,   0.0,  0.23, 
 05/02/07, 09:00,  -8.3,  92,   0.7,   1.2,   2.4,   0.0,  0.97, 
 05/02/07, 10:00,  -5.8,  85,   0.8,   1.3,   2.5,   0.0,  1.46, 
 05/02/07, 11:00,  -4.3,  80,   0.8,   1.3,   2.5,   0.0,  1.58, 
 05/02/07, 12:00,  -3.9,  81,   0.8,   1.3,   2.5,   0.0,  1.42, 
 05/02/07, 13:00,  -2.1,  76,   0.8,   1.3,   2.5,   0.0,  1.10, 
 05/02/07, 14:00,  -1.5,  72,   0.8,   1.3,   2.5,   0.0,  0.87, 
 05/02/07, 15:00,  -0.6,  76,   0.7,   1.3,   2.5,   0.0,  1.61, 
 05/02/07, 16:00,  -0.7,  71,   0.8,   1.3,   2.5,   0.0,  0.39, 
 05/02/07, 17:00,  -0.9,  80,   0.7,   1.3,   2.4,   0.0,  0.23, 
 05/02/07, 18:00,  -1.9,  88,   0.7,   1.3,   2.4,   0.0,  0.00, 
 05/02/07, 19:00,  -1.8,  87,   0.7,   1.3,   2.4,   0.0,  0.00, 
 05/02/07, 20:00,  -2.0,  90,   0.7,   1.2,   2.5,   0.0,  0.00, 
 05/02/07, 21:00,  -2.4,  92,   0.7,   1.2,   2.5,   0.0,  0.00, 
 05/02/07, 22:00,  -2.7,  97,   0.7,   1.2,   2.4,   0.0,  0.00, 
 05/02/07, 23:00,  -2.5,  97,   0.7,   1.2,   2.5,   0.0,  0.00, 
 05/02/08, 00:00,  -2.7,  99,   0.7,   1.2,   2.4,   0.0,  0.00, 
 05/02/08, 01:00,  -2.6,  99,   0.7,   1.2,   2.4,   0.0,  0.00, 
 05/02/08, 02:00,  -0.2,  93,   0.7,   1.2,   2.4,   0.0,  0.00, 
 05/02/08, 03:00,   0.4,  95,   0.7,   1.2,   2.4,   0.0,  0.00, 
 05/02/08, 04:00,   0.7,  97,   0.7,   1.2,   2.4,   0.0,  0.00, 
 05/02/08, 05:00,   1.2,  94,   0.7,   1.2,   2.4,   0.0,  0.00, 
 05/02/08, 06:00,   1.2,  96,   0.7,   1.2,   2.4,   0.0,  0.00, 
 05/02/08, 07:00,   1.2,  95,   0.7,   1.2,   2.4,   0.0,  0.00, 
 05/02/08, 08:00,   1.2,  99,   0.7,   1.2,   2.4,   0.0,  0.00, 
 05/02/08, 09:00,   1.3,  99,   0.7,   1.2,   2.4,   0.5,  0.07, 
 05/02/08, 10:00,   0.0,  99,   0.7,   1.2,   2.4,   0.0,  0.14, 
 05/02/08, 11:00,   0.4,  99,   0.7,   1.2,   2.4,   1.0,  0.18, 
 05/02/08, 12:00,   0.4,  99,   0.7,   1.2,   2.4,   1.5,  0.13, 
 05/02/08, 13:00,   0.3,  99,   0.7,   1.2,   2.4,   1.0,  0.12, 
 05/02/08, 14:00,   0.5,  99,   0.7,   1.2,   2.4,   0.5,  0.03, 
 05/02/08, 15:00,   0.8,  99,   0.7,   1.2,   2.4,   0.5,  0.04, 
 05/02/08, 16:00,   1.3,  99,   0.7,   1.2,   2.4,   0.0,  0.17, 
 05/02/08, 17:00,   1.3,  99,   0.7,   1.2,   2.4,   0.0,  0.18, 
 05/02/08, 18:00,   0.7,  99,   0.7,   1.2,   2.4,   0.0,  0.00, 
 05/02/08, 19:00,  -0.1,  99,   0.7,   1.2,   2.5,   0.0,  0.00, 
 05/02/08, 20:00,  -0.5,  99,   0.7,   1.2,   2.5,   0.0,  0.00, 
 05/02/08, 21:00,  -1.4,  99,   0.7,   1.2,   2.5,   0.5,  0.00, 
 05/02/08, 22:00,  -1.9,  99,   0.7,   1.2,   2.4,   0.0,  0.00, 
 05/02/08, 23:00,  -1.9,  99,   0.7,   1.2,   2.5,   0.0,  0.00, 
 05/02/09, 00:00,  -2.7,  97,   0.7,   1.2,   2.5,   0.0,  0.00, 
 05/02/09, 01:00,  -3.0,  94,   0.7,   1.2,   2.5,   0.0,  0.00, 
 05/02/09, 02:00,  -3.3,  89,   0.7,   1.2,   2.4,   0.0,  0.00, 
 05/02/09, 03:00,  -3.6,  88,   0.7,   1.2,   2.4,   0.0,  0.00, 
 05/02/09, 04:00,  -2.9,  76,   0.7,   1.2,   2.4,   0.0,  0.00, 
 05/02/09, 05:00,  -3.2,  80,   0.7,   1.2,   2.4,   0.0,  0.00, 
 05/02/09, 06:00,  -2.1,  66,   0.7,   1.2,   2.4,   0.0,  0.00, 
 05/02/09, 07:00,  -5.0,  86,   0.7,   1.2,   2.4,   0.0,  0.00, 
 05/02/09, 08:00,  -2.9,  79,   0.7,   1.2,   2.4,   0.0,  0.28, 
 05/02/09, 09:00,  -0.2,  71,   0.7,   1.2,   2.4,   0.0,  1.17, 
 05/02/09, 10:00,   1.2,  77,   0.8,   1.2,   2.5,   0.0,  1.85, 
 05/02/09, 11:00,   0.6,  82,   0.8,   1.3,   2.5,   0.0,  2.30, 
 05/02/09, 12:00,   1.0,  70,   0.9,   1.3,   2.5,   0.0,  2.54, 
 05/02/09, 13:00,   3.2,  74,   0.9,   1.3,   2.5,   0.0,  2.55, 
 05/02/09, 14:00,   3.3,  70,   0.9,   1.3,   2.5,   0.0,  2.24, 
 05/02/09, 15:00,   3.6,  51,   0.9,   1.3,   2.5,   0.0,  1.83, 
 05/02/09, 16:00,   4.3,  39,   0.9,   1.3,   2.5,   0.0,  1.42, 
 05/02/09, 17:00,   4.1,  39,   0.9,   1.3,   2.5,   0.0,  0.41, 
 05/02/09, 18:00,   1.0,  69,   0.9,   1.3,   2.5,   0.0,  0.04, 
 05/02/09, 19:00,   1.6,  60,   0.9,   1.3,   2.5,   0.0,  0.00, 
 05/02/09, 20:00,   1.7,  73,   0.8,   1.3,   2.5,   0.0,  0.00, 
 05/02/09, 21:00,   1.7,  81,   0.8,   1.3,   2.5,   0.0,  0.00, 
 05/02/09, 22:00,   1.7,  86,   0.8,   1.3,   2.5,   0.0,  0.00, 
 05/02/09, 23:00,   1.0,  96,   0.8,   1.3,   2.5,   0.0,  0.00, 
 05/02/10, 00:00,   1.1,  99,   0.8,   1.3,   2.5,   0.0,  0.00, 
 05/02/10, 01:00,   0.6,  99,   0.8,   1.3,   2.5,   0.5,  0.00, 
 05/02/10, 02:00,   0.7,  99,   0.8,   1.3,   2.5,   0.5,  0.00, 
 05/02/10, 03:00,   0.6,  99,   0.8,   1.3,   2.5,   1.0,  0.00, 
 05/02/10, 04:00,   0.4,  99,   0.8,   1.3,   2.5,   1.5,  0.00, 
 05/02/10, 05:00,   0.4,  99,   0.8,   1.3,   2.5,   0.5,  0.00, 
 05/02/10, 06:00,   0.2,  99,   0.8,   1.3,   2.5,   0.5,  0.00, 
 05/02/10, 07:00,   0.0,  99,   0.7,   1.3,   2.5,   0.5,  0.00, 
 05/02/10, 08:00,  -0.3,  99,   0.8,   1.3,   2.5,   0.0,  0.00, 
 05/02/10, 09:00,  -0.8,  99,   0.8,   1.3,   2.5,   0.5,  0.00, 
 05/02/10, 10:00,  -1.0,  99,   0.8,   1.3,   2.5,   0.0,  0.10, 
 05/02/10, 11:00,  -2.1,  99,   0.8,   1.3,   2.5,   0.0,  0.71, 
 05/02/10, 12:00,  -2.5,  99,   0.8,   1.3,   2.5,   0.0,  0.75, 
 05/02/10, 13:00,  -2.6,  99,   0.8,   1.3,   2.5,   0.0,  0.62, 
 05/02/10, 14:00,  -2.5,  99,   0.8,   1.3,   2.5,   0.0,  0.72, 
 05/02/10, 15:00,  -1.9,  95,   0.8,   1.3,   2.5,   0.0,  1.05, 
 05/02/10, 16:00,  -3.2,  92,   0.8,   1.3,   2.5,   0.0,  1.38, 
 05/02/10, 17:00,  -4.1,  99,   0.8,   1.3,   2.5,   0.0,  0.33, 
 05/02/10, 18:00,  -4.9,  99,   0.8,   1.3,   2.5,   0.0,  0.00, 
 05/02/10, 19:00,  -5.6,  99,   0.8,   1.3,   2.5,   0.0,  0.00, 
 05/02/10, 20:00,  -6.4,  99,   0.8,   1.3,   2.5,   0.0,  0.00, 
 05/02/10, 21:00,  -6.3,  98,   0.8,   1.3,   2.5,   0.0,  0.00, 
 05/02/10, 22:00,  -6.9,  97,   0.8,   1.3,   2.5,   0.0,  0.00, 
 05/02/10, 23:00,  -7.3,  98,   0.8,   1.3,   2.5,   0.0,  0.00, 
 05/02/11, 00:00,  -8.1,  96,   0.8,   1.3,   2.5,   0.0,  0.00, 
 05/02/11, 01:00,  -8.4,  97,   0.8,   1.3,   2.5,   0.0,  0.00, 
 05/02/11, 02:00,  -9.2,  95,   0.8,   1.3,   2.5,   0.5,  0.00, 
 05/02/11, 03:00,  -9.9,  93,   0.8,   1.3,   2.5,   0.0,  0.00, 
 05/02/11, 04:00, -10.0,  94,   0.8,   1.3,   2.5,   0.0,  0.00, 
 05/02/11, 05:00, -10.9,  90,   0.8,   1.3,   2.5,   0.0,  0.00, 
 05/02/11, 06:00, -11.1,  89,   0.8,   1.2,   2.5,   0.0,  0.00, 
 05/02/11, 07:00, -11.4,  93,   0.8,   1.2,   2.4,   0.0,  0.00, 
 05/02/11, 08:00, -11.8,  94,   0.8,   1.2,   2.4,   0.0,  0.09, 
 05/02/11, 09:00, -10.2,  93,   0.8,   1.2,   2.4,   0.0,  0.74, 
 05/02/11, 10:00,  -8.2,  94,   0.8,   1.2,   2.5,   0.0,  1.56, 
 05/02/11, 11:00,  -7.2,  82,   0.8,   1.3,   2.5,   0.0,  1.72, 
 05/02/11, 12:00,  -6.7,  74,   0.8,   1.3,   2.5,   0.0,  1.46, 
 05/02/11, 13:00,  -6.3,  71,   0.8,   1.3,   2.5,   0.0,  2.06, 
 05/02/11, 14:00,  -5.3,  65,   0.8,   1.3,   2.5,   0.0,  2.02, 
 05/02/11, 15:00,  -5.9,  60,   0.8,   1.3,   2.5,   0.0,  1.64, 
 05/02/11, 16:00,  -6.4,  68,   0.8,   1.3,   2.5,   0.0,  1.46, 
 05/02/11, 17:00,  -6.9,  66,   0.8,   1.3,   2.5,   0.0,  0.33, 
 05/02/11, 18:00,  -7.3,  64,   0.8,   1.2,   2.4,   0.0,  0.02, 
 05/02/11, 19:00,  -7.6,  69,   0.8,   1.2,   2.4,   0.0,  0.00, 
 05/02/11, 20:00,  -7.8,  68,   0.8,   1.3,   2.5,   0.0,  0.00, 
 05/02/11, 21:00,  -8.0,  78,   0.8,   1.3,   2.5,   0.0,  0.00, 
 05/02/11, 22:00,  -8.6,  77,   0.8,   1.2,   2.5,   0.0,  0.00, 
 05/02/11, 23:00,  -8.8,  83,   0.8,   1.2,   2.4,   0.0,  0.00, 
 05/02/12, 00:00,  -8.5,  81,   0.8,   1.3,   2.5,   0.0,  0.00, 
 05/02/12, 01:00,  -8.9,  85,   0.8,   1.2,   2.4,   0.0,  0.00, 
 05/02/12, 02:00,  -8.7,  87,   0.8,   1.2,   2.4,   0.0,  0.00, 
 05/02/12, 03:00,  -8.8,  89,   0.8,   1.2,   2.4,   0.5,  0.00, 
 05/02/12, 04:00,  -8.8,  86,   0.7,   1.2,   2.4,   0.0,  0.00, 
 05/02/12, 05:00,  -9.2,  90,   0.8,   1.2,   2.4,   0.0,  0.00, 
 05/02/12, 06:00,  -9.4,  93,   0.7,   1.2,   2.4,   0.0,  0.00, 
 05/02/12, 07:00,  -9.5,  95,   0.7,   1.2,   2.4,   0.0,  0.00, 
 05/02/12, 08:00,  -9.1,  98,   0.7,   1.2,   2.4,   0.0,  0.25, 
 05/02/12, 09:00,  -8.3,  89,   0.8,   1.2,   2.5,   0.0,  1.18, 
 05/02/12, 10:00,  -7.5,  97,   0.8,   1.2,   2.4,   0.0,  2.09, 
 05/02/12, 11:00,  -6.2,  82,   0.8,   1.2,   2.4,   0.0,  2.09, 
 05/02/12, 12:00,  -5.4,  64,   0.8,   1.2,   2.4,   0.0,  2.22, 
 05/02/12, 13:00,  -4.5,  61,   0.8,   1.2,   2.4,   0.0,  1.96, 
 05/02/12, 14:00,  -5.0,  60,   0.8,   1.2,   2.4,   0.0,  1.83, 
 05/02/12, 15:00,  -5.6,  58,   0.8,   1.2,   2.3,   0.0,  1.11, 
 05/02/12, 16:00,  -6.3,  63,   0.8,   1.2,   2.4,   0.0,  0.61, 
 05/02/12, 17:00,  -6.5,  62,   0.8,   1.2,   2.3,   0.0,  0.19, 
 05/02/12, 18:00,  -6.5,  60,   0.8,   1.2,   2.3,   0.0,  0.00, 
 05/02/12, 19:00,  -6.8,  66,   0.8,   1.2,   2.3,   0.0,  0.00, 
 05/02/12, 20:00,  -6.8,  66,   0.8,   1.2,   2.3,   0.0,  0.00, 
 05/02/12, 21:00,  -7.0,  71,   0.8,   1.2,   2.3,   0.0,  0.00, 
 05/02/12, 22:00,  -6.9,  77,   0.8,   1.2,   2.3,   0.0,  0.00, 
 05/02/12, 23:00,  -7.3,  78,   0.8,   1.2,   2.3,   0.0,  0.00, 
 05/02/13, 00:00,  -6.7,  69,   0.8,   1.2,   2.3,   0.0,  0.00, 
 05/02/13, 01:00,  -7.1,  71,   0.8,   1.2,   2.3,   0.0,  0.00, 
 05/02/13, 02:00,  -8.2,  78,   0.8,   1.2,   2.3,   0.0,  0.00, 
 05/02/13, 03:00,  -8.5,  77,   0.8,   1.2,   2.3,   0.0,  0.00, 
 05/02/13, 04:00,  -9.4,  81,   0.8,   1.2,   2.3,   0.0,  0.00, 
 05/02/13, 05:00,  -8.5,  72,   0.8,   1.2,   2.3,   0.0,  0.00, 
 05/02/13, 06:00,  -7.4,  63,   0.8,   1.2,   2.3,   0.0,  0.00, 
 05/02/13, 07:00,  -6.7,  60,   0.7,   1.2,   2.3,   0.0,  0.00, 
 05/02/13, 08:00,  -5.8,  59,   0.7,   1.2,   2.3,   0.0,  0.19, 
 05/02/13, 09:00,  -4.5,  57,   0.7,   1.2,   2.3,   0.0,  0.79, 
 05/02/13, 10:00,  -3.1,  57,   0.7,   1.2,   2.3,   0.0,  1.31, 
 05/02/13, 11:00,  -4.0,  69,   0.7,   1.2,   2.3,   0.0,  1.18, 
 05/02/13, 12:00,  -2.8,  59,   0.7,   1.3,   2.4,   0.0,  1.98, 
 05/02/13, 13:00,  -3.2,  58,   0.7,   1.2,   2.3,   0.0,  1.67, 
 05/02/13, 14:00,  -3.6,  67,   0.7,   1.3,   2.4,   0.0,  1.13, 
 05/02/13, 15:00,  -3.9,  71,   0.7,   1.2,   2.3,   0.0,  0.98, 
 05/02/13, 16:00,  -3.4,  71,   0.7,   1.2,   2.3,   0.0,  0.93, 
 05/02/13, 17:00,  -4.5,  74,   0.7,   1.2,   2.3,   0.0,  0.45, 
 05/02/13, 18:00,  -5.3,  83,   0.7,   1.2,   2.3,   0.0,  0.05, 
 05/02/13, 19:00,  -6.3,  89,   0.7,   1.2,   2.3,   0.0,  0.00, 
 05/02/13, 20:00,  -6.7,  98,   0.7,   1.2,   2.3,   0.0,  0.00, 
 05/02/13, 21:00,  -6.9,  97,   0.7,   1.2,   2.3,   1.5,  0.00, 
 05/02/13, 22:00,  -6.7,  98,   0.7,   1.2,   2.3,   1.0,  0.00, 
 05/02/13, 23:00,  -7.0,  93,   0.7,   1.2,   2.3,   0.5,  0.00, 
 05/02/14, 00:00,  -7.1,  93,   0.7,   1.2,   2.3,   0.0,  0.00, 
 05/02/14, 01:00,  -7.1,  94,   0.7,   1.2,   2.3,   0.5,  0.00, 
 05/02/14, 02:00,  -7.1,  94,   0.7,   1.2,   2.3,   0.5,  0.00, 
 05/02/14, 03:00,  -7.3,  96,   0.7,   1.2,   2.3,   0.5,  0.00, 
 05/02/14, 04:00,  -7.5,  95,   0.7,   1.2,   2.3,   0.5,  0.00, 
 05/02/14, 05:00,  -7.9,  94,   0.7,   1.2,   2.3,   0.5,  0.00, 
 05/02/14, 06:00,  -8.3,  92,   0.7,   1.2,   2.3,   0.0,  0.00, 
 05/02/14, 07:00,  -8.9,  87,   0.7,   1.2,   2.3,   0.0,  0.00, 
 05/02/14, 08:00,  -8.9,  86,   0.7,   1.2,   2.3,   0.0,  0.20, 
 05/02/14, 09:00,  -7.5,  76,   0.7,   1.2,   2.3,   0.0,  1.00, 
 05/02/14, 10:00,  -6.8,  84,   0.7,   1.2,   2.3,   0.0,  1.81, 
 05/02/14, 11:00,  -5.3,  80,   0.7,   1.2,   2.3,   0.0,  2.46, 
 05/02/14, 12:00,  -5.0,  81,   0.7,   1.2,   2.3,   0.0,  2.70, 
 05/02/14, 13:00,  -3.8,  78,   0.7,   1.2,   2.3,   0.0,  2.62, 
 05/02/14, 14:00,  -2.3,  74,   0.7,   1.2,   2.3,   0.0,  2.44, 
 05/02/14, 15:00,  -3.4,  71,   0.7,   1.2,   2.3,   0.0,  1.88, 
 05/02/14, 16:00,  -3.6,  63,   0.7,   1.2,   2.3,   0.0,  1.43, 
 05/02/14, 17:00,  -4.0,  70,   0.7,   1.2,   2.3,   0.0,  0.47, 
 05/02/14, 18:00,  -5.4,  77,   0.7,   1.2,   2.3,   0.0,  0.03, 
 05/02/14, 19:00,  -5.5,  80,   0.7,   1.2,   2.3,   0.0,  0.00, 
 05/02/14, 20:00,  -5.8,  78,   0.7,   1.2,   2.3,   0.0,  0.00, 
 05/02/14, 21:00,  -5.3,  68,   0.7,   1.2,   2.3,   0.0,  0.00, 
 05/02/14, 22:00,  -5.0,  55,   0.7,   1.2,   2.3,   0.0,  0.00, 
 05/02/14, 23:00,  -4.8,  50,   0.7,   1.2,   2.3,   0.0,  0.00, 
 05/02/15, 00:00,  -4.6,  52,   0.7,   1.2,   2.3,   0.0,  0.00, 
 05/02/15, 01:00,  -3.6,  39,   0.7,   1.2,   2.3,   0.0,  0.00, 
 05/02/15, 02:00,  -4.1,  34,   0.7,   1.2,   2.3,   0.0,  0.00, 
 05/02/15, 03:00,  -4.1,  42,   0.7,   1.2,   2.3,   0.0,  0.00, 
 05/02/15, 04:00,  -2.3,  27,   0.7,   1.2,   2.3,   0.5,  0.00, 
 05/02/15, 05:00,  -2.8,  25,   0.7,   1.2,   2.3,   0.0,  0.00, 
 05/02/15, 06:00,  -0.6,  13,   0.7,   1.2,   2.3,   0.0,  0.00, 
 05/02/15, 07:00,  -1.5,  13,   0.7,   1.2,   2.3,   0.0,  0.00, 
 05/02/15, 08:00,  -1.7,  20,   0.7,   1.2,   2.3,   0.0,  0.38, 
 05/02/15, 09:00,   0.8,  18,   0.7,   1.2,   2.3,   0.0,  1.05, 
 05/02/15, 10:00,   1.6,  21,   0.7,   1.2,   2.3,   0.0,  1.73, 
 05/02/15, 11:00,   1.2,  28,   0.7,   1.2,   2.3,   0.0,  1.87, 
 05/02/15, 12:00,   1.9,  27,   0.8,   1.3,   2.4,   0.0,  2.44, 
 05/02/15, 13:00,   2.3,  36,   0.8,   1.3,   2.4,   0.0,  2.64, 
 05/02/15, 14:00,   2.5,  37,   0.8,   1.3,   2.4,   0.0,  2.46, 
 05/02/15, 15:00,   1.9,  37,   0.8,   1.3,   2.4,   0.0,  1.87, 
 05/02/15, 16:00,   1.2,  45,   0.8,   1.3,   2.4,   0.0,  0.75, 
 05/02/15, 17:00,  -0.4,  52,   0.8,   1.3,   2.4,   0.0,  0.32, 
 05/02/15, 18:00,  -1.6,  58,   0.8,   1.3,   2.4,   0.0,  0.02, 
 05/02/15, 19:00,  -2.4,  70,   0.8,   1.3,   2.4,   0.0,  0.00, 
 05/02/15, 20:00,  -1.7,  56,   0.8,   1.2,   2.4,   0.0,  0.00, 
 05/02/15, 21:00,  -1.7,  69,   0.8,   1.2,   2.4,   0.0,  0.00, 
 05/02/15, 22:00,  -0.5,  55,   0.7,   1.2,   2.4,   0.0,  0.00, 
 05/02/15, 23:00,   0.3,  48,   0.7,   1.2,   2.4,   0.0,  0.00, 
 05/02/16, 00:00,   2.7,  29,   0.7,   1.2,   2.4,   0.0,  0.00, 
 05/02/16, 01:00,  -0.7,  64,   0.7,   1.2,   2.4,   0.0,  0.00, 